Location: Alafon
(8.4500°N, 4.2333°E)
Time: 18:36:22
(UTC+00:00)

A-11 Canister half - Pass Details

Date: 09 August 2021
Orbit: 1515 x 1685 km, 47.2° (Epoch: 19 September)

Event Time Altitude Azimuth Distance (km) Brightness Sun altitude
Rises 22:12:10 0° 323° (NW) 4,919 12.2 -56.1°
Reaches altitude 10° 22:15:21 10° 326° (NW) 3,938 11.5 -56.7°
Enters shadow 22:18:33 24° 330° (NNW) 2,998 10.7 -57.2°
Maximum altitude 22:25:29 71° 49° (NE) 1,756 - -58.4°
Drops below altitude 10° 22:35:30 10° 132° (SE) 3,901 - -59.9°
Sets 22:38:37 0° 134° (SE) 4,871 - -60.4°
